FW4606 Weather Reports


Display with metric or nautical units.
time (UTC)temp
F
wind
direction
speed
MPH
gust
MPH
rain 1hr
in
rain 24hr
in
rain mn
in
humidity
%
barometer
mb
20240304234309 39 351 0.0 2.0 0.00 0.00 0.00 52 1015.6
20240304233809 39 351 0.0 2.0 0.00 0.00 0.00 51 1015.6
20240304233309 40 356 0.0 3.0 0.00 0.00 0.00 52 1015.7
20240304233040 41 4 0.0 3.0 0.00 0.00 0.00 50 1015.7
20240304232307 41 11 1.0 3.0 0.00 0.00 0.00 52 1015.8
20240304231804 40 11 1.0 4.0 0.00 0.00 0.00 50 1015.7
20240304231305 40 84 1.0 4.0 0.00 0.00 0.00 50 1015.7
20240304231035 40 20 0.0 3.0 0.00 0.00 0.00 53 1015.7
20240304230532 39 350 0.0 3.0 0.00 0.00 0.00 50 1015.6
20240304225801 40 356 0.0 3.0 0.00 0.00 0.00 50 1015.5
20240304225257 40 345 1.0 3.0 0.00 0.00 0.00 52 1015.5
20240304224756 39 354 0.0 3.0 0.00 0.00 0.00 52 1015.4
20240304224253 39 8 0.0 3.0 0.00 0.00 0.00 54 1015.5
20240304223753 39 13 0.0 2.0 0.00 0.00 0.00 55 1015.5
20240304223254 39 48 0.0 2.0 0.00 0.00 0.00 52 1015.3
20240304222753 39 351 0.0 2.0 0.00 0.00 0.00 53 1015.4
20240304222527 39 6 0.0 2.0 0.00 0.00 0.00 55 1015.5
20240304221755 39 7 0.0 2.0 0.00 0.00 0.00 54 1015.4
20240304221249 39 343 0.0 2.0 0.00 0.00 0.00 51 1015.2
20240304221014 39 9 0.0 1.0 0.00 0.00 0.00 53 1015.3
20240304220508 40 9 0.0 1.0 0.00 0.00 0.00 52 1015.2
20240304215737 40 351 0.0 0.0 0.00 0.00 0.00 53 1015.4
20240304215239 39 351 0.0 2.0 0.00 0.00 0.00 53 1015.3
20240304214737 39 345 0.0 2.0 0.00 0.00 0.00 53 1015.3
20240304214233 39 129 0.0 2.0 0.00 0.00 0.00 53 1015.3
20240304213734 39 122 0.0 2.0 0.00 0.00 0.00 53 1015.2
20240304213235 39 30 0.0 2.0 0.00 0.00 0.00 50 1015.3
20240304212736 40 356 0.0 2.0 0.00 0.00 0.00 50 1015.2
20240304212231 40 274 0.0 1.0 0.00 0.00 0.00 52 1015.3
20240304211730 40 271 0.0 1.0 0.00 0.00 0.00 53 1015.2
20240304211232 40 132 0.0 1.0 0.00 0.00 0.00 52 1015.2
20240304210729 40 193 0.0 1.0 0.00 0.00 0.00 52 1015.1
20240304210227 40 139 0.0 1.0 0.00 0.00 0.00 52 1015.3
20240304205727 39 119 0.0 2.0 0.00 0.00 0.00 51 1015.2
20240304205229 39 153 0.0 2.0 0.00 0.00 0.00 51 1015.1
20240304204727 39 354 0.0 2.0 0.00 0.00 0.00 50 1015.0
20240304204223 40 345 0.0 2.0 0.00 0.00 0.00 49 1015.0
20240304203723 40 343 0.0 2.0 0.00 0.00 0.00 48 1015.0
20240304203222 40 184 0.0 2.0 0.00 0.00 0.00 49 1014.8
20240304202717 40 207 0.0 3.0 0.00 0.00 0.00 50 1014.8
20240304202211 40 315 0.0 3.0 0.00 0.00 0.00 48 1014.6
20240304201708 40 276 0.0 0.0 0.00 0.00 0.00 51 1014.6
20240304201208 40 203 0.0 1.0 0.00 0.00 0.00 48 1014.7
20240304200707 40 197 0.0 2.0 0.00 0.00 0.00 50 1014.8
20240304200209 40 24 0.0 2.0 0.00 0.00 0.00 50 1015.0
20240304195706 39 214 0.0 2.0 0.00 0.00 0.00 50 1014.9
20240304195439 39 13 0.0 1.0 0.00 0.00 0.00 49 1014.9
20240304194938 39 176 0.0 1.0 0.00 0.00 0.00 50 1015.0
20240304194207 39 7 0.0 3.0 0.00 0.00 0.00 50 1014.9
20240304193705 39 352 0.0 3.0 0.00 0.00 0.00 48 1015.1
20240304193206 39 155 0.0 2.0 0.00 0.00 0.00 50 1015.1
20240304192707 39 225 0.0 2.0 0.00 0.00 0.00 51 1015.1
20240304192206 38 242 0.0 2.0 0.00 0.00 0.00 52 1015.0
20240304191707 38 205 0.0 2.0 0.00 0.00 0.00 51 1015.1
20240304191437 38 236 1.0 2.0 0.00 0.00 0.00 50 1015.1
20240304190937 38 253 1.0 3.0 0.00 0.00 0.00 54 1015.2
20240304190439 38 207 1.0 3.0 0.00 0.00 0.00 53 1015.2
20240304185705 37 181 0.0 2.0 0.00 0.00 0.00 53 1015.2
20240304185435 37 186 0.0 2.0 0.00 0.00 0.00 52 1015.4
20240304184705 38 351 0.0 2.0 0.00 0.00 0.00 51 1015.3
20240304184201 38 200 0.0 2.0 0.00 0.00 0.00 54 1015.4
20240304183702 37 269 0.0 1.0 0.00 0.00 0.00 54 1015.4
20240304183435 37 6 0.0 1.0 0.00 0.00 0.00 52 1015.4
20240304182655 37 6 0.0 1.0 0.00 0.00 0.00 53 1015.6
20240304182424 37 48 0.0 1.0 0.00 0.00 0.00 54 1015.6
20240304181926 37 0 0.0 1.0 0.00 0.00 0.00 55 1015.8
20240304181155 37 34 0.0 2.0 0.00 0.00 0.00 56 1015.8
20240304180653 37 242 0.0 2.0 0.00 0.00 0.00 58 1015.9
20240304180153 37 258 0.0 0.0 0.00 0.00 0.00 57 1015.9
20240304175651 36 262 0.0 2.0 0.00 0.00 0.00 58 1015.8
20240304175153 36 263 0.0 2.0 0.00 0.00 0.00 60 1015.9
20240304174652 36 103 0.0 2.0 0.00 0.00 0.00 60 1015.7
20240304174152 36 352 0.0 1.0 0.00 0.00 0.00 60 1015.8
20240304173652 35 351 0.0 2.0 0.00 0.00 0.00 60 1015.6
20240304173149 35 298 0.0 2.0 0.00 0.00 0.00 59 1015.7
20240304172919 36 332 0.0 2.0 0.00 0.00 0.00 59 1015.5
20240304172147 35 346 0.0 2.0 0.00 0.00 0.00 61 1015.3
20240304171648 35 331 0.0 2.0 0.00 0.00 0.00 62 1015.3
20240304171148 35 0 0.0 2.0 0.00 0.00 0.00 61 1015.3
20240304170653 35 309 1.0 5.0 0.00 0.00 0.00 63 1015.2
20240304170648 35 308 0.0 1.0 0.00 0.00 0.00 63 1015.2
20240304165649 35 6 1.0 5.0 0.00 0.00 0.00 60 1015.2
20240304165149 35 5 1.0 3.0 0.00 0.00 0.00 60 1015.4
20240304164915 35 353 1.0 3.0 0.00 0.00 0.00 60 1015.2
20240304164145 35 343 0.0 2.0 0.00 0.00 0.00 63 1015.4
20240304163645 35 3 0.0 3.0 0.00 0.00 0.00 64 1015.2
20240304163143 35 25 0.0 3.0 0.00 0.00 0.00 61 1015.1
20240304162643 35 15 0.0 2.0 0.00 0.00 0.00 63 1015.3
20240304162146 35 347 1.0 2.0 0.00 0.00 0.00 61 1015.3
20240304161918 35 8 0.0 2.0 0.00 0.00 0.00 62 1015.2
20240304161419 36 236 0.0 0.0 0.00 0.00 0.00 64 1015.1
20240304160648 36 235 0.0 0.0 0.00 0.00 0.00 64 1015.1
20240304160144 35 235 0.0 0.0 0.00 0.00 0.00 66 1015.2
20240304155644 35 235 0.0 0.0 0.00 0.00 0.00 63 1015.2
20240304155146 35 235 0.0 1.0 0.00 0.00 0.00 64 1015.3
20240304154641 35 235 0.0 1.0 0.00 0.00 0.00 64 1015.3
20240304154141 35 163 0.0 1.0 0.00 0.00 0.00 63 1015.2
20240304153642 35 184 0.0 1.0 0.00 0.00 0.00 62 1015.2
20240304153140 35 302 0.0 2.0 0.00 0.00 0.00 64 1015.2
20240304152640 36 153 0.0 3.0 0.00 0.00 0.00 65 1015.2
20240304152141 36 204 0.0 3.0 0.00 0.00 0.00 67 1015.3
20240304151636 35 204 0.0 2.0 0.00 0.00 0.00 67 1015.2
20240304151406 35 135 1.0 3.0 0.00 0.00 0.00 67 1015.4
20240304150635 35 220 1.0 3.0 0.00 0.00 0.00 68 1015.5
20240304150406 35 226 1.0 3.0 0.00 0.00 0.00 68 1015.5
20240304145635 35 189 1.0 2.0 0.00 0.00 0.00 68 1015.5
20240304145135 35 214 0.0 2.0 0.00 0.00 0.00 68 1015.5
20240304144637 35 207 0.0 2.0 0.00 0.00 0.00 69 1015.5
20240304144137 35 144 0.0 2.0 0.00 0.00 0.00 69 1015.5
20240304143636 35 211 0.0 3.0 0.00 0.00 0.00 68 1015.5
20240304143134 35 168 1.0 3.0 0.00 0.00 0.00 68 1015.3
20240304142903 35 205 1.0 3.0 0.00 0.00 0.00 68 1015.2
20240304142131 34 198 1.0 3.0 0.00 0.00 0.00 68 1015.2
20240304141902 34 226 1.0 3.0 0.00 0.00 0.00 68 1015.2
20240304141131 34 198 1.0 3.0 0.00 0.00 0.00 69 1015.2
20240304140631 34 136 1.0 3.0 0.00 0.00 0.00 69 1015.1
20240304140131 34 198 1.0 4.0 0.00 0.00 0.00 69 1014.9
20240304135633 34 204 1.0 4.0 0.00 0.00 0.00 69 1014.9
20240304135132 34 231 1.0 4.0 0.00 0.00 0.00 69 1014.9
20240304134628 34 119 1.0 4.0 0.00 0.00 0.00 69 1014.9
20240304134359 34 179 1.0 4.0 0.00 0.00 0.00 70 1014.9
20240304133859 34 187 2.0 4.0 0.00 0.00 0.00 70 1014.9
20240304133128 34 224 2.0 6.0 0.00 0.00 0.00 70 1014.6
20240304132629 34 210 2.0 6.0 0.00 0.00 0.00 70 1014.7
20240304132128 33 153 2.0 4.0 0.00 0.00 0.00 71 1014.7
20240304131627 33 197 2.0 4.0 0.00 0.00 0.00 72 1014.5
20240304131128 33 208 1.0 3.0 0.00 0.00 0.00 74 1014.5
20240304130629 33 167 0.0 3.0 0.00 0.00 0.00 74 1014.3
20240304130129 33 211 0.0 2.0 0.00 0.00 0.00 75 1014.1
20240304125627 33 194 0.0 2.0 0.00 0.00 0.00 76 1014.0
20240304125400 33 166 1.0 2.0 0.00 0.00 0.00 76 1014.0
20240304124626 33 196 1.0 2.0 0.00 0.00 0.00 75 1013.7
20240304124126 33 207 1.0 2.0 0.00 0.00 0.00 76 1013.5
20240304123626 33 214 1.0 2.0 0.00 0.00 0.00 75 1013.6
20240304123124 33 198 1.0 2.0 0.00 0.00 0.00 76 1013.4
20240304122854 34 148 1.0 2.0 0.00 0.00 0.00 76 1012.9
20240304122123 34 172 1.0 2.0 0.00 0.00 0.00 76 1012.7
20240304121623 34 222 1.0 2.0 0.00 0.00 0.00 76 1012.3
20240304121123 34 215 1.0 2.0 0.00 0.00 0.00 76 1012.4
20240304120621 34 207 0.0 2.0 0.00 0.00 0.00 76 1012.2
20240304120353 34 162 0.0 2.0 0.00 0.00 0.00 76 1012.2
20240304115847 34 211 0.0 2.0 0.00 0.00 0.00 76 1012.1
20240304115114 34 214 1.0 2.0 0.00 0.00 0.00 76 1012.2
20240304114614 34 201 0.0 3.0 0.00 0.00 0.00 76 1012.2
20240304114114 34 121 0.0 3.0 0.00 0.00 0.00 76 1012.4
20240304113618 34 173 0.0 3.0 0.00 0.00 0.00 76 1012.6
20240304113612 34 235 0.0 2.0 0.00 0.00 0.00 76 1012.5
20240304112607 34 252 0.0 3.0 0.00 0.00 0.00 76 1012.6
20240304112341 34 222 0.0 2.0 0.00 0.00 0.00 76 1012.5
20240304111607 34 227 0.0 3.0 0.00 0.00 0.00 76 1012.5
20240304111106 34 226 1.0 3.0 0.00 0.00 0.00 76 1012.5
20240304110606 34 207 1.0 3.0 0.00 0.00 0.00 76 1012.1
20240304110104 34 236 1.0 2.0 0.00 0.00 0.00 76 1012.1
20240304105603 34 145 1.0 2.0 0.00 0.00 0.00 77 1011.8
20240304105102 34 166 1.0 2.0 0.00 0.00 0.00 78 1011.5
20240304104601 34 197 0.0 1.0 0.00 0.00 0.00 79 1011.0
20240304104102 34 291 0.0 1.0 0.00 0.00 0.00 79 1010.6
20240304103602 34 127 0.0 1.0 0.00 0.00 0.00 79 1010.9
20240304103329 34 205 0.0 1.0 0.00 0.00 0.00 78 1011.2
20240304102822 34 155 0.0 1.0 0.00 0.00 0.00 79 1011.0
20240304102045 34 210 0.0 1.0 0.00 0.00 0.00 79 1011.0
20240304101540 34 222 0.0 2.0 0.00 0.00 0.00 79 1011.0
20240304101033 34 207 0.0 2.0 0.00 0.00 0.00 78 1011.0
20240304100527 34 211 1.0 2.0 0.00 0.00 0.00 78 1010.8
20240304100251 34 211 0.0 2.0 0.00 0.00 0.00 77 1010.7
20240304095513 34 153 0.0 2.0 0.00 0.00 0.00 77 1010.5
20240304095007 34 222 1.0 3.0 0.00 0.00 0.00 78 1010.4
20240304094732 34 218 0.0 3.0 0.00 0.00 0.00 77 1010.7
20240304093956 34 203 0.0 2.0 0.00 0.00 0.00 77 1010.4
20240304093449 34 167 0.0 3.0 0.00 0.00 0.00 77 1010.4
20240304092943 34 226 0.0 3.0 0.00 0.00 0.00 78 1010.4
20240304092437 34 197 0.0 1.0 0.00 0.00 0.00 78 1010.3
20240304092206 33 238 0.0 1.0 0.00 0.00 0.00 78 1010.1
20240304091431 33 218 0.0 2.0 0.00 0.00 0.00 78 1009.9
20240304090932 33 205 0.0 3.0 0.00 0.00 0.00 79 1009.6
20240304090431 33 155 0.0 4.0 0.00 0.00 0.00 80 1009.8
20240304090203 33 226 1.0 4.0 0.00 0.00 0.00 81 1010.1
20240304085433 32 210 1.0 3.0 0.00 0.00 0.00 83 1010.1
20240304084933 31 228 0.0 2.0 0.00 0.00 0.00 83 1010.3
20240304084701 31 221 0.0 1.0 0.00 0.00 0.00 82 1010.0
20240304083931 31 141 0.0 1.0 0.00 0.00 0.00 83 1009.7
20240304083429 30 121 0.0 1.0 0.00 0.00 0.00 84 1009.3
20240304082932 30 125 0.0 0.0 0.00 0.00 0.00 82 1009.1
20240304082701 31 125 0.0 0.0 0.00 0.00 0.00 81 1008.9
20240304081930 31 125 0.0 0.0 0.00 0.00 0.00 80 1008.5
20240304081431 31 126 0.0 0.0 0.00 0.00 0.00 79 1008.4
20240304080928 32 125 0.0 1.0 0.00 0.00 0.00 79 1008.4
20240304080427 32 124 0.0 1.0 0.00 0.00 0.00 78 1008.4
20240304075928 32 125 0.0 0.0 0.00 0.00 0.00 78 1008.9
20240304075422 33 125 0.0 1.0 0.00 0.00 0.00 78 1009.0
20240304074917 33 124 0.0 1.0 0.00 0.00 0.00 79 1008.7
20240304074641 32 131 0.0 0.0 0.00 0.00 0.00 79 1008.7
20240304073904 32 131 0.0 0.0 0.00 0.00 0.00 78 1008.7
20240304073358 33 131 0.0 0.0 0.00 0.00 0.00 77 1008.6
20240304072852 33 131 0.0 0.0 0.00 0.00 0.00 75 1008.9
20240304072346 33 131 0.0 0.0 0.00 0.00 0.00 75 1008.9
20240304071840 34 131 0.0 1.0 0.00 0.00 0.00 74 1009.0
20240304071334 34 131 0.0 1.0 0.00 0.00 0.00 74 1009.1
20240304070828 34 219 0.0 1.0 0.00 0.00 0.00 73 1009.0
20240304070322 34 214 0.0 1.0 0.00 0.00 0.00 73 1009.3
20240304065816 35 225 0.0 1.0 0.00 0.00 0.00 72 1009.1
20240304065310 35 153 0.0 5.0 0.00 0.00 0.00 72 1009.2
20240304064804 35 194 0.0 5.0 0.00 0.00 0.00 72 1009.5
20240304064258 35 205 1.0 2.0 0.00 0.00 0.00 71 1009.0
20240304063753 36 238 1.0 5.0 0.00 0.00 0.00 70 1008.8
20240304063246 36 172 1.0 5.0 0.00 0.00 0.00 70 1008.8
20240304062740 36 158 1.0 3.0 0.00 0.00 0.00 70 1008.9
20240304062233 36 214 1.0 3.0 0.00 0.00 0.00 70 1008.8
20240304061959 36 156 1.0 4.0 0.00 0.00 0.00 70 1008.6
20240304061221 36 222 1.0 4.0 0.00 0.00 0.00 70 1008.5
20240304060716 36 207 2.0 4.0 0.00 0.00 0.00 70 1008.5
20240304060210 37 207 2.0 7.0 0.00 0.00 0.00 70 1008.4
20240304055702 37 143 2.0 7.0 0.00 0.00 0.00 69 1008.3
20240304055158 37 193 3.0 6.0 0.00 0.00 0.00 69 1008.5
20240304054651 37 238 3.0 8.0 0.00 0.00 0.00 68 1008.7
20240304054145 37 169 4.0 8.0 0.00 0.00 0.00 69 1008.4
20240304053639 38 166 4.0 8.0 0.00 0.00 0.00 69 1008.1
20240304053405 38 228 3.0 10.0 0.00 0.00 0.00 70 1008.0
20240304052627 38 194 2.0 10.0 0.00 0.00 0.00 71 1007.5
20240304052121 38 214 2.0 7.0 0.00 0.00 0.00 72 1007.5
20240304051615 38 236 2.0 8.0 0.00 0.00 0.00 73 1007.3
20240304051109 38 211 2.0 8.0 0.00 0.00 0.00 73 1007.2
20240304050602 38 229 2.0 6.0 0.00 0.00 0.00 74 1007.4
20240304050327 38 131 2.0 6.0 0.00 0.00 0.00 74 1007.5
20240304045550 38 209 2.0 6.0 0.00 0.00 0.00 74 1007.5
20240304045045 38 199 2.0 6.0 0.00 0.00 0.00 74 1007.2
20240304044539 39 225 2.0 5.0 0.00 0.00 0.00 74 1007.0
20240304044034 39 231 2.0 5.0 0.00 0.00 0.00 74 1006.8
20240304043527 39 214 2.0 6.0 0.00 0.00 0.00 73 1006.5
20240304043021 39 232 2.0 6.0 0.00 0.00 0.00 73 1006.5
20240304042515 39 236 2.0 5.0 0.00 0.00 0.00 73 1006.4
20240304042009 39 246 2.0 4.0 0.00 0.00 0.00 73 1006.5
20240304041503 39 181 2.0 4.0 0.00 0.00 0.00 73 1006.2
20240304040957 40 190 2.0 6.0 0.00 0.00 0.00 72 1005.7
20240304040723 40 208 3.0 8.0 0.00 0.00 0.00 72 1005.3
20240304035945 40 167 3.0 9.0 0.00 0.00 0.00 73 1005.3
20240304035439 40 214 4.0 9.0 0.00 0.00 0.00 73 1005.2
20240304034933 40 242 3.0 9.0 0.00 0.00 0.00 73 1005.3
20240304034427 40 145 2.0 6.0 0.00 0.00 0.00 75 1005.2
20240304033921 40 199 3.0 8.0 0.00 0.00 0.00 75 1005.1
20240304033415 40 165 3.0 9.0 0.00 0.00 0.00 75 1005.1
20240304032908 40 226 2.0 9.0 0.00 0.00 0.00 76 1005.1
20240304032402 40 250 2.0 6.0 0.00 0.00 0.00 76 1005.2
20240304031857 40 187 2.0 6.0 0.00 0.00 0.00 76 1005.2
20240304031351 41 214 2.0 7.0 0.00 0.00 0.00 76 1005.1
20240304030845 41 224 2.0 7.0 0.00 0.00 0.00 76 1004.8
20240304030339 41 208 2.0 7.0 0.00 0.00 0.00 76 1004.8
20240304025832 41 190 2.0 10.0 0.00 0.00 0.00 76 1004.8
20240304025327 41 203 2.0 10.0 0.00 0.00 0.00 75 1004.8
20240304024822 41 225 3.0 9.0 0.00 0.00 0.00 74 1004.7
20240304024314 41 193 3.0 9.0 0.00 0.00 0.00 74 1004.6
20240304023809 41 198 3.0 8.0 0.00 0.00 0.00 74 1004.5
20240304023303 41 225 3.0 8.0 0.00 0.00 0.00 74 1004.4
20240304022757 41 228 3.0 8.0 0.00 0.00 0.00 74 1004.2
20240304022251 41 132 3.0 8.0 0.00 0.00 0.00 74 1004.0
20240304021745 42 214 3.0 9.0 0.00 0.00 0.00 73 1003.9
20240304021239 42 198 4.0 9.0 0.00 0.00 0.00 73 1003.6
20240304020734 42 218 4.0 8.0 0.00 0.00 0.00 72 1003.3
20240304020227 42 203 5.0 12.0 0.00 0.00 0.00 72 1003.1
20240304015721 43 191 5.0 12.0 0.00 0.00 0.00 71 1003.2
20240304015215 43 168 5.0 10.0 0.00 0.00 0.00 71 1003.0
20240304014709 44 219 5.0 11.0 0.00 0.00 0.00 71 1002.9
20240304014203 44 193 6.0 11.0 0.00 0.00 0.00 70 1002.6
20240304013656 44 177 7.0 15.0 0.00 0.00 0.00 70 1002.5
20240304013151 44 139 7.0 15.0 0.00 0.00 0.00 70 1002.5
20240304012645 45 191 7.0 15.0 0.00 0.00 0.00 70 1002.4
20240304012138 45 158 7.0 15.0 0.00 0.00 0.00 71 1002.2
20240304011632 45 201 7.0 12.0 0.00 0.00 0.00 72 1002.0
20240304011127 45 205 7.0 12.0 0.00 0.00 0.00 72 1001.6
20240304010621 46 194 8.0 13.0 0.00 0.00 0.00 72 1001.4
20240304010116 46 235 8.0 15.0 0.00 0.00 0.00 72 1001.0
20240304005608 46 218 8.0 15.0 0.00 0.00 0.00 73 1000.9
20240304005103 46 201 7.0 13.0 0.00 0.00 0.00 73 1000.8
20240304004556 46 211 6.0 12.0 0.00 0.00 0.00 74 1000.4
20240304004050 47 215 5.0 11.0 0.00 0.00 0.00 74 1000.0
20240304003545 47 149 7.0 13.0 0.00 0.00 0.00 74 999.8
20240304003039 47 160 7.0 13.0 0.00 0.00 0.00 73 999.7
20240304002533 47 120 7.0 12.0 0.00 0.00 0.00 74 999.7
20240304002300 48 239 7.0 12.0 0.00 0.00 0.00 74 999.3
20240304002023 48 211 8.0 14.0 0.00 0.00 0.00 74 999.0
20240304001015 48 214 10.0 22.0 0.00 0.00 0.00 73 998.8
20240304000509 49 210 10.0 22.0 0.00 0.00 0.00 73 998.3
20240304000234 49 218 9.0 19.0 0.00 0.00 0.00 72 998.0
20240303235457 50 219 8.0 15.0 0.00 0.00 0.00 71 997.6
20240303234950 50 203 8.0 16.0 0.00 0.00 0.00 72 997.2
20240303234445 51 158 9.0 18.0 0.00 0.00 0.00 71 996.8